Traverse City, MI

10:04 AM EST on February 11, 2016 (GMT -0500)
Cherry Capital

Weather History for KTVC - May, 2014

Change the Weather History Date:

Saturday, May 3, 2014

  Actual Average Record
Temperature  
Mean Temperature 44 °F 49 °F  
Max Temperature 53 °F 61 °F 88 °F (1955)
Min Temperature 34 °F 37 °F 22 °F (1967)
Degree Days  
Heating Degree Days 21 16  
Month to date heating degree days 59 49  
Since 1 July heating degree days 7813 7116  
Cooling Degree Days 0 0  
Month to date cooling degree days 0 0  
Year to date cooling degree days 0 3  
Moisture  
Dew Point 40 °F    
Average Humidity 76    
Maximum Humidity 92    
Minimum Humidity 59    
Precipitation  
Precipitation 0.17 in 0.08 in 1.59 in (2012)
Month to date precipitation 0.22 0.24  
Year to date precipitation 6.72 9.20  
Sea Level Pressure  
Sea Level Pressure 29.66 in    
Wind  
Wind Speed 6 mph (WSW)    
Max Wind Speed 25 mph    
Max Gust Speed 32 mph    
Visibility 9 miles    
Events Rain    
T = Trace of Precipitation, MM = Missing Value Source: NWS Daily Summary

Daily Weather History Graph

Daily Weather History Graph

Search for Another Location

Airport or City:

Trip Planner

Search our weather history database for the weather conditions in past years. The results will help you decide how hot, cold, wet, or windy it might be!

Date:

Astronomy

May. 03, 2014 Rise Set
Actual Time 6:29 AM EDT 8:49 PM EDT
Civil Twilight 5:56 AM EDT 9:22 PM EDT
Nautical Twilight 5:16 AM EDT 10:02 PM EDT
Astronomical Twilight 4:31 AM EDT 10:48 PM EDT
Moon 9:56 AM EDT (5/3) 12:12 AM EDT (5/3)
Length of Visible Light 15h 25m
Length of Day
14h 20m
Waxing Crescent, 19% of the Moon is Illuminated
May 3
Waxing Crescent
May 6
First Quarter
May 14
Full
May 21
Last Quarter
May 28
New

Hourly Weather History & Observations

Time (EDT) Temp. Windchill Dew Point Humidity Pressure Visibility Wind Dir Wind Speed Gust Speed Precip Events Conditions
12:53 AM 45.0 °F 42.6 °F 41.0 °F 86% 29.68 in 10.0 mi SSW 4.6 mph - N/A   Overcast
1:53 AM 45.0 °F 42.6 °F 41.0 °F 86% 29.66 in 10.0 mi South 4.6 mph - N/A   Overcast
2:53 AM 45.0 °F 43.5 °F 41.0 °F 86% 29.65 in 10.0 mi South 3.5 mph - N/A   Overcast
3:53 AM 45.0 °F 42.6 °F 41.0 °F 86% 29.64 in 10.0 mi South 4.6 mph - N/A   Overcast
4:53 AM 45.0 °F - 41.0 °F 86% 29.63 in 10.0 mi Calm Calm - N/A   Overcast
6:53 AM 44.1 °F - 41.0 °F 89% 29.61 in 10.0 mi Calm Calm - N/A   Overcast
7:53 AM 45.0 °F - 42.1 °F 90% 29.61 in 9.0 mi Calm Calm - 0.00 in Rain Light Rain
8:00 AM 45.0 °F 43.5 °F 42.1 °F 90% 29.60 in 9.0 mi SSE 3.5 mph - 0.00 in   Overcast
8:14 AM 45.0 °F - 42.1 °F 90% 29.59 in 7.0 mi Calm Calm - 0.00 in Rain Light Rain
8:53 AM 45.0 °F - 43.0 °F 93% 29.60 in 5.0 mi Calm Calm - 0.01 in Rain Light Rain
9:27 AM 45.0 °F 42.6 °F 43.0 °F 93% 29.60 in 2.0 mi West 4.6 mph - 0.07 in Rain Rain
9:41 AM 45.0 °F 43.5 °F 43.0 °F 93% 29.60 in 4.0 mi SW 3.5 mph - 0.08 in Rain Light Rain
9:53 AM 45.0 °F 42.6 °F 43.0 °F 93% 29.61 in 4.0 mi SW 4.6 mph - 0.09 in Rain Light Rain
10:00 AM 45.0 °F 43.5 °F 43.0 °F 93% 29.60 in 4.0 mi SW 3.5 mph - 0.02 in Rain Rain
10:53 AM 46.0 °F - 43.0 °F 89% 29.60 in 10.0 mi Calm Calm - 0.07 in   Overcast
11:53 AM 48.0 °F - 43.0 °F 83% 29.61 in 10.0 mi West 10.4 mph - 0.00 in   Overcast
12:53 PM 46.9 °F - 42.1 °F 83% 29.62 in 10.0 mi West 15.0 mph - 0.00 in Rain Light Rain
1:00 PM 46.9 °F - 42.1 °F 83% 29.61 in 10.0 mi West 15.0 mph - 0.00 in Rain Light Rain
1:53 PM 48.0 °F - 39.9 °F 74% 29.63 in 10.0 mi WNW 17.3 mph 25.3 mph 0.00 in   Overcast
2:53 PM 48.0 °F - 39.0 °F 71% 29.67 in 10.0 mi NW 16.1 mph 21.9 mph N/A   Overcast
4:53 PM 51.1 °F - 37.0 °F 59% 29.70 in 10.0 mi WNW 16.1 mph - N/A   Mostly Cloudy
5:53 PM 50.0 °F - 37.9 °F 63% 29.72 in 9.0 mi NW 19.6 mph 32.2 mph 0.00 in Rain Light Rain
6:53 PM 46.0 °F 42.5 °F 39.9 °F 79% 29.75 in 10.0 mi NE 6.9 mph - 0.00 in   Mostly Cloudy
7:53 PM 43.0 °F 38.8 °F 37.9 °F 82% 29.78 in 10.0 mi NNE 6.9 mph - N/A   Scattered Clouds
8:53 PM 43.0 °F - 37.0 °F 80% 29.80 in 10.0 mi Calm Calm - N/A   Partly Cloudy
9:53 PM 39.0 °F - 36.0 °F 89% 29.81 in 10.0 mi Calm Calm - N/A   Partly Cloudy
10:53 PM 37.0 °F - 34.0 °F 89% 29.81 in 10.0 mi Calm Calm - N/A   Clear
11:53 PM 36.0 °F - 33.1 °F 89% 29.81 in 10.0 mi Calm Calm - N/A   Clear